Regional Weather Roundup
Issued by NWS

Home | Current Version | Previous Version | Graphics & Text | Print | Product List | Glossary On
Versions: 1 2 3 4 5 6 7 8 9 10 11 12 13 14 15 16 17 18 19 20 21 22 23 24 25 26 27 28 29 30 31 32 33 34 35 36 37 38 39 40 41 42 43 44 45 46 47 48 49 50
000
ASUS43 KIND 220309
RWRIN

WEATHER ROUNDUP FOR INDIANA
NATIONAL WEATHER SERVICE INDIANAPOLIS IN
1100 PM EDT MON JUL 21 2014

NOTE: "FAIR" INDICATES FEW OR NO CLOUDS BELOW 12,000 FEET WITH NO
SIGNIFICANT WEATHER AND/OR OBSTRUCTIONS TO VISIBILITY.

* - STATION DOES NOT REPORT WEATHER SUCH AS PRECIPITATION OR FOG.

+ - STATION NOT QUALITY CONTROLLED BY THE NATIONAL WEATHER SERVICE.
    USE DATA WITH CAUTION...ESPECIALLY DEWPOINT AND RELATIVE
    HUMIDITY OBSERVATIONS.

INZ001>003-010>013-019-020-220400-
NORTHWEST INDIANA

CITY           SKY/WX    TMP DP  RH WIND       PRES   REMARKS
GARY /AIRPORT/ CLEAR     71  67  88 CALM      30.09S
KNOX *+        CLEAR     66  62  88 CALM      30.10R
LA PORTE +     CLEAR     68  64  85 CALM      30.11S
MICHIGAN CITY+ CLEAR     70  63  78 CALM      30.09S
MONTICELLO +   CLEAR     68  66  95 CALM      30.10R
RENSSELAER +   CLEAR     66  64  94 CALM      30.10S
VALPARAISO     CLEAR     72  64  76 S3        30.10S

$$

LMZ046-743>745-220400-
SOUTHERN LAKE MICHIGAN

STATION/POSITION TIME  TEMP WIND        PRES
                       AIR  DIR/SP/G
                 (UTC) (F)  (DEG/KT/KT) (MB)
BURNS HARBOR     0200   78  190/  7/  8 1019.0S
MICHIGAN CITY    0300   76  170/  7/  9   N/A

$$

INZ004-005-014>016-021>024-220400-
NORTH CENTRAL INDIANA

CITY           SKY/WX    TMP DP  RH WIND       PRES   REMARKS
GOSHEN         CLEAR     71  66  84 CALM      30.10S
LOGANSPORT +   CLEAR     68  63  83 CALM      30.11S
PERU/GRISSOM   CLEAR     71  68  90 E2        30.11R
ROCHESTER +    CLEAR     70  64  83 CALM      30.11S
SOUTH BEND     CLEAR     75  65  70 S6        30.10S
WARSAW +       CLEAR     68  64  88 CALM      30.11S

$$

INZ006>009-017-018-025>027-220400-
NORTHEAST INDIANA

CITY           SKY/WX    TMP DP  RH WIND       PRES   REMARKS
ANGOLA *+      CLEAR     70  64  83 CALM      30.12S
AUBURN +       CLEAR     70  61  73 CALM      30.12S
FORT WAYNE     CLEAR     72  63  73 CALM      30.12R
HUNTINGTON +   CLEAR     69  64  86 CALM      30.11S

$$

INZ028-029-035-036-043>045-051>053-220400-
WEST CENTRAL INDIANA

CITY           SKY/WX    TMP DP  RH WIND       PRES   REMARKS
GREENCASTLE +  CLEAR     68  64  88 CALM      30.11S
LAFAYETTE      CLEAR     70  66  87 CALM      30.10R
TERRE HAUTE    CLEAR     68  65  90 CALM      30.10R

$$

INZ030>032-037>040-046>048-054>057-064-065-220400-
CENTRAL INDIANA

CITY           SKY/WX    TMP DP  RH WIND       PRES   REMARKS
CP ATTERBURY + CLEAR     68  66  94 CALM      30.11S FOG
INDIANAPOLIS   MOCLDY    77  63  61 CALM      30.10R
-EAGLE CREEK   PTCLDY    75  65  70 CALM      30.10R
KOKOMO *+      CLEAR     68  64  88 CALM      30.11S
MARION +       CLEAR     67  64  90 CALM      30.12S
MT COMFORT *+  CLEAR     66  66 100 CALM      30.12S
SHELBYVILLE    CLEAR     70  65  84 E5        30.11R
ZIONSVILLE +   CLEAR     71  65  80 CALM      30.12S

$$

INZ033-034-041-042-049-050-058-059-220400-
EAST CENTRAL INDIANA

CITY           SKY/WX    TMP DP  RH WIND       PRES   REMARKS
MUNCIE         CLEAR     69  62  78 CALM      30.12R

$$

INZ060-061-067>069-081>083-085>088-220400-
SOUTHWEST INDIANA

CITY           SKY/WX    TMP DP  RH WIND       PRES   REMARKS
EVANSVILLE     CLEAR     75  68  78 CALM      30.08R
HUNTINGBURG *+ CLEAR     73  66  78 NE3       30.09S
WASHINGTON +   CLEAR     69  67  96 CALM      30.08S

$$

INZ062-063-066-070>080-084-089>092-220400-
SOUTH CENTRAL AND SOUTHEAST INDIANA

CITY           SKY/WX    TMP DP  RH WIND       PRES   REMARKS
BEDFORD +      CLEAR     72  64  78 CALM      30.10
BLOOMINGTON    CLEAR     67  64  90 CALM      30.11R FOG

$$




USA.gov is the U.S. government's official web portal to all federal, state and local government web resources and services.